"Pseudo-MPEC" for P11JTUq

Created 2023 Sep 19 11:22:37 UT using Find_Orb

Click here for an explanation of pseudo-MPECs

 
 Astrometry: 
     P11JTUq  C2023 07 27AFuMAstrometryZ\;y2JmtlgIO,ei8b0=VS6Y2x9`4T_GX,u$NESF51
     P11JTUq  C2023 07 27Z%s#=54ZlAPnX/KDi#]P7ki^IPZ'$Y58^b!w*5iKe8]tc[dfrn#cF51
     P11JTUq  C2023 07 277fAvny/]8mE.HB8]2=HJUvgj:-cb0GuVoueR3XwAs3=+*e/9P*0]F51
     P11JTUq  C2023 07 27GsHMMNtH+CCJu0)L+cFredacted;'+IFobyFM]m_u'gIOLmMwh7ZF51
     P11JTUq  C2023 09 12oCC;a$dKo'goMn,AnEpO2?Y92,6UCJJfm?(r?lwis8!3Dv[il1U1F51
     P11JTUq  C2023 09 12jnxP^SM.WnVvv(oB%^pwvKclick0tGF=91M$Uu_Z/2B@ZR0ZfS9$F51
     P11JTUq  C2023 09 12#7UN!Ou!Gh2tlAoIZ)2mS'XI895E,:HCoPEx%FEm3?9.iirO6x(=F51
     P11JTUq* C2023 09 181QU$AT0[VT*,S(1SNX@GLO6hcq.;yKL+[PL5aalokRHMd!UvB#HKF51
     P11JTUq* C2023 09 18mkCVbQLx!7OM'jhM_Y%a,C@8?Bcf3,wP]Il:Gm+Pt2@b_Yue@[b7F51
     P11JTUq  C2023 09 18w(OpK9]8yZh7)ZQ*'6[!IUcb5^'/@jFqrPhwiK6B_$Yh9dL@!avJF51
     P11JTUq  C2023 09 18=_f,xnor^pi0F1.i\D1Akc;Uj60Q2ZnK!T#oJuS@?=@PK/ghereIF51
     P11JTUq  C2023 09 18@beuAp1QGCfpIg$L6NHCHA`BK2Q85LU;7[7X+Hd,F*VoK[AacC*fF51
     P11JTUq  C2023 09 18j.jV:for\Ff7a#LR\1U!*NJU/EpMiT9axGQUah!'%+,og=JA5%KdF51
     P11JTUq  C2023 09 18)ZsN*q^9Y\;d7VRl^2ci2056QK;ViDjLt=DXV#:Kg,(tRf,o/$'?F51
     P11JTUq  C2023 09 189=J2Z-VJ$)xA'VQ*J#K0+EcK+XZ/:S#WWAj7);-)9N0I%nM\t^gsF51
     P11JTUq  C2023 09 18!l%3LhMYk+6gO'pOBW35_w^Ff!tJhmK[L8aofu`KeMmw)iTpY9nqF52
     P11JTUq  C2023 09 182n]3ha!5f6b%RWkMqplyJ9vS)+Jxr30@qC.XyCEi_$ApoHhe;AiTF52
     P11JTUq  C2023 09 18=B7FSUrAe8lc$x#+]''.vOPexplanation;jq^y4'6k'DFTeeF1(F52
     P11JTUq  C2023 09 18G5xy9*6@eDq:tf_kK^ZRNK3LKgkj4s58q4QUJq@IB5C/tiZ2If:NF52

Station data:
(F51) Pan-STARRS 1, Haleakala  (N20.707234 W156.255910)  US/Hawaii.
   Observers J. Bulger, T. Lowe, A. Schultz, M. Willman. Measurers K.
   Chambers, S. Chastel, T. de Boer, L. Denneau, J. Fairlamb, H. Flewelling,
   M. Huber, C.-C. Lin, E. Magnier, Y. Ramanjooloo, R. Wainscoat, R. Weryk.
   1.8-m Ritchey-Chrétien + CCD.
(F52) Pan-STARRS 2, Haleakala  (N20.707382 W156.255910)  US/Hawaii.
   Observers J. Bulger, T. Dukes, T. Lowe, A. Schultz, M. Willman. Measurers
   K. Chambers, S. Chastel, T. de Boer, L. Denneau, J. Fairlamb, H.
   Flewelling, M. Huber, C.-C. Lin, E. Magnier, Y. Ramanjooloo, R. Wainscoat,
   R. Weryk. 1.8-m Ritchey-Chrétien + CCD.

Orbital elements:  P11JTUq
   Perihelion 2024 Jan 21.41697 +/- 0.124 TT = 10:00:26 (JD 2460330.91697)
Epoch 2023 Sep 18.0 TT = JDT 2460205.5   Earth MOID: 0.7013      AutoNEOCP
M 309.88252185 +/- 0.045            (J2000 ecliptic)
n   0.39960683 +/- 3.81e-5          Peri.   25.06361 +/- 0.06
a   1.82549553 +/- 0.000116         Node    25.63078 +/- 0.0046
e   0.0755041 +/- 0.000129          Incl.   22.24252 +/- 0.0039
P   2.47/900.87d           H 19.85  G  0.15   U  5.9
q 1.68766309 +/- 0.000135    Q 1.96332796 +/- 0.000359
From 19 observations 2023 July 27-Sept. 18; mean residual 0".12
Residuals in arcseconds: 
230727 F51  .12-  .22-    230918 F51  .08-  .12+    230918 F51  .01+  .30-    
230727 F51  .23-  .11-    230918 F51  .00   .05+    230918 F52  .07+  .09-    
230727 F51  .10+  .17+    230918 F51  .02+  .07+    230918 F52  .01+  .04-    
230727 F51  .25+  .15+    230918 F51  .01+  .06+    230918 F52  .15-  .13+    
230912 F51  .04-  .01+    230918 F51  .03-  .05+    230918 F52  .07+  .04-    
230912 F51  .07+  .21-    230918 F51  .07+  .08+    
230912 F51  .03-  .20+    230918 F51  .01+  .08-    

Ephemerides (geocentric):
Date (UTC) HH   RA             Dec           delta  r     elong  mag " sig PA
---- --------  ------------   ------------  ------ ------ -----  --- --------
2023 09 19 11  00 31 03.469   -25 13 22.63  .78323 1.7425 153.9 21.3 .056  31
2023 09 19 12  00 30 58.684   -25 13 03.91  .78316 1.7425 153.9 21.3 .058  32
2023 09 19 13  00 30 53.897   -25 12 45.12  .78309 1.7425 153.9 21.3 .059  33
2023 09 19 14  00 30 49.109   -25 12 26.28  .78302 1.7424 154.0 21.3 .060  33
2023 09 19 15  00 30 44.318   -25 12 07.39  .78295 1.7424 154.0 21.3 .062  34
2023 09 19 16  00 30 39.525   -25 11 48.44  .78288 1.7424 154.0 21.3 .063  34
2023 09 19 17  00 30 34.731   -25 11 29.43  .78281 1.7423 154.0 21.3 .064  35
2023 09 19 18  00 30 29.934   -25 11 10.37  .78274 1.7423 154.0 21.3 .066  35
2023 09 19 19  00 30 25.136   -25 10 51.25  .78267 1.7423 154.0 21.3 .067  36
2023 09 19 20  00 30 20.335   -25 10 32.08  .78261 1.7422 154.0 21.3 .068  36
2023 09 19 21  00 30 15.533   -25 10 12.84  .78254 1.7422 154.0 21.3 .070  37
2023 09 19 22  00 30 10.729   -25 09 53.56  .78247 1.7422 154.1 21.3 .071  37
2023 09 19 23  00 30 05.923   -25 09 34.21  .78241 1.7421 154.1 21.3 .073  38
2023 09 20 00  00 30 01.115   -25 09 14.81  .78234 1.7421 154.1 21.3 .074  38
2023 09 20 01  00 29 56.305   -25 08 55.36  .78228 1.7421 154.1 21.3 .076  39
2023 09 20 02  00 29 51.494   -25 08 35.84  .78221 1.7420 154.1 21.3 .077  39
2023 09 20 03  00 29 46.681   -25 08 16.28  .78215 1.7420 154.1 21.3 .078  39
2023 09 20 04  00 29 41.865   -25 07 56.65  .78208 1.7420 154.1 21.3 .080  40
2023 09 20 05  00 29 37.049   -25 07 36.97  .78202 1.7419 154.1 21.3 .081  40
2023 09 20 06  00 29 32.230   -25 07 17.23  .78195 1.7419 154.2 21.3 .083  41
2023 09 20 07  00 29 27.409   -25 06 57.43  .78189 1.7419 154.2 21.3 .084  41
2023 09 20 08  00 29 22.587   -25 06 37.58  .78183 1.7418 154.2 21.3 .086  41
2023 09 20 09  00 29 17.763   -25 06 17.68  .78176 1.7418 154.2 21.3 .087  42
2023 09 20 10  00 29 12.938   -25 05 57.71  .78170 1.7418 154.2 21.3 .089  42
2023 09 20 11  00 29 08.110   -25 05 37.69  .78164 1.7417 154.2 21.3 .091  43
2023 09 20 12  00 29 03.281   -25 05 17.61  .78158 1.7417 154.2 21.3 .092  43
2023 09 20 13  00 28 58.451   -25 04 57.48  .78152 1.7417 154.2 21.3 .094  43
2023 09 20 14  00 28 53.618   -25 04 37.29  .78146 1.7416 154.2 21.3 .095  44
2023 09 20 15  00 28 48.784   -25 04 17.04  .78140 1.7416 154.3 21.3 .097  44
2023 09 20 16  00 28 43.948   -25 03 56.74  .78134 1.7416 154.3 21.3 .098  44
2023 09 20 17  00 28 39.111   -25 03 36.37  .78128 1.7415 154.3 21.3 .100  45
2023 09 20 18  00 28 34.272   -25 03 15.96  .78122 1.7415 154.3 21.3 .102  45
2023 09 20 19  00 28 29.432   -25 02 55.48  .78116 1.7415 154.3 21.3 .103  45
2023 09 20 20  00 28 24.590   -25 02 34.95  .78110 1.7414 154.3 21.3 .105  46
2023 09 20 21  00 28 19.746   -25 02 14.36  .78104 1.7414 154.3 21.3 .107  46
2023 09 20 22  00 28 14.901   -25 01 53.72  .78099 1.7414 154.3 21.3 .108  46
2023 09 20 23  00 28 10.054   -25 01 33.02  .78093 1.7413 154.3 21.3 .110  47
2023 09 21 00  00 28 05.206   -25 01 12.26  .78087 1.7413 154.3 21.3 .112  47
2023 09 21 01  00 28 00.356   -25 00 51.44  .78081 1.7413 154.4 21.3 .113  47
2023 09 21 02  00 27 55.505   -25 00 30.57  .78076 1.7412 154.4 21.3 .115  47
2023 09 21 03  00 27 50.652   -25 00 09.64  .78070 1.7412 154.4 21.3 .117  48
2023 09 21 04  00 27 45.798   -24 59 48.65  .78065 1.7412 154.4 21.3 .119  48
2023 09 21 05  00 27 40.943   -24 59 27.61  .78059 1.7411 154.4 21.3 .120  48
2023 09 21 06  00 27 36.086   -24 59 06.51  .78054 1.7411 154.4 21.3 .122  49
2023 09 21 07  00 27 31.227   -24 58 45.35  .78048 1.7411 154.4 21.3 .124  49
2023 09 21 08  00 27 26.367   -24 58 24.14  .78043 1.7410 154.4 21.3 .126  49
2023 09 21 09  00 27 21.506   -24 58 02.87  .78038 1.7410 154.4 21.3 .127  49
2023 09 21 10  00 27 16.643   -24 57 41.54  .78032 1.7410 154.4 21.3 .129  50